Location: Mahannah Oil Field
(37.4664°N, 96.6003°W)
Time: 15:42:33
(UTC+00:00)

Vanguard 2 Rocket - Pass Details

Date: 30 January 2021
Orbit: 554 x 3325 km, 32.9° (Epoch: 06 March)

Event Time Altitude Azimuth Distance (km) Brightness Sun altitude
Rises 17:54:31 0° 222° (SW) 7,215 11.9 34.1°
Reaches altitude 10° 17:59:40 10° 217° (SW) 6,269 11.8 34.3°
Maximum altitude 18:18:03 45° 153° (SSE) 3,695 11.7 34.9°
Drops below altitude 10° 18:31:50 10° 87° (E) 4,819 10.7 35.1°
Sets 18:35:09 0° 81° (E) 5,495 10.8 35.1°
